This is the latest recevied weather packets stored in our database for station/object KF6YUA. If no packets are shown the sender has not sent any weather packets the latest 10 day(s).
| Time | Temp. | Humidity | Pressure | Rain* | Wind** | Luminosity | Snow |
|---|---|---|---|---|---|---|---|
| 1777679012 | 19.44° C | 71% | 1014.3 hPa | 0 mm | - | 300 W/m² | - |
| 1777678711 | 19.44° C | 72% | 1014.4 hPa | 0 mm | - | 302 W/m² | - |
| 1777678408 | 19.44° C | 71% | 1014.6 hPa | 0 mm | - | 316 W/m² | - |
| 1777678103 | 19.44° C | 69% | 1014.6 hPa | 0 mm | - | 319 W/m² | - |
| 1777677801 | 20° C | 70% | 1014.6 hPa | 0 mm | - | 369 W/m² | - |
| 1777677498 | 20° C | 66% | 1014.6 hPa | 0 mm | - | 418 W/m² | - |
| 1777677196 | 20.56° C | 68% | 1014.5 hPa | 0 mm | - | 476 W/m² | - |
| 1777676894 | 20° C | 68% | 1014.5 hPa | 0 mm | - | 482 W/m² | - |
| 1777676593 | 20° C | 69% | 1014.5 hPa | 0 mm | - | 382 W/m² | - |
| 1777676290 | 19.44° C | 69% | 1014.8 hPa | 0 mm | - | 363 W/m² | - |
| 1777675988 | 18.89° C | 71% | 1014.8 hPa | 0 mm | - | 371 W/m² | - |
| 1777675684 | 18.89° C | 73% | 1015 hPa | 0 mm | - | 250 W/m² | - |
| 1777675381 | 18.89° C | 72% | 1015.1 hPa | 0 mm | - | 404 W/m² | - |
| 1777675076 | 19.44° C | 71% | 1015.2 hPa | 0 mm | - | 444 W/m² | - |
| 1777674773 | 18.89° C | 73% | 1015.2 hPa | 0 mm | - | 477 W/m² | - |
| 1777674470 | 18.89° C | 73% | 1015.2 hPa | 0 mm | - | 281 W/m² | - |
| 1777674168 | 18.89° C | 73% | 1015.4 hPa | 0 mm | - | 412 W/m² | - |
| 1777673864 | 19.44° C | 73% | 1015.4 hPa | 0 mm | - | 431 W/m² | - |
| 1777673561 | 20° C | 72% | 1015.7 hPa | 0 mm | - | 484 W/m² | - |
| 1777673258 | 20.56° C | 72% | 1015.6 hPa | 0 mm | - | 487 W/m² | - |
| 1777672955 | 20.56° C | 71% | 1015.5 hPa | 0 mm | - | 385 W/m² | - |
| 1777672653 | 20.56° C | 71% | 1015.7 hPa | 0 mm | - | 445 W/m² | - |
| 1777672347 | 20.56° C | 72% | 1015.7 hPa | 0 mm | - | 445 W/m² | - |
| 1777672043 | 21.11° C | 71% | 1015.7 hPa | 0 mm | - | 414 W/m² | - |
| 1777671739 | 21.11° C | 71% | 1015.8 hPa | 0 mm | - | 506 W/m² | - |
* Rain latest hour (hover to see other rain measurements)
** Current wind speed in m/s (hover to see current wind gust speed)